Location: Johnson City
(36.3130°N, 82.3540°W)
Time: 10:44:02
(UTC-04:00)

Hubble Space Telescope - Visible Passes

Search period start: 19 April 2019 00:00
Search period end: 29 April 2019 00:00
Orbit: 537 x 540 km, 28.5° (Epoch: 19 April)

Date Brightness Start Highest point End Pass type
(mag) Time Alt. Az. Time Alt. Az. Time Alt. Az.
22 Apr 3.2 05:51:37 10° S 05:52:44 11° SSE 05:53:51 10° SE visible
23 Apr 3.1 05:40:05 10° S 05:42:07 13° SSE 05:44:07 10° SE visible
24 Apr 2.8 05:29:50 13° S 05:31:30 16° SSE 05:34:01 10° SE visible
25 Apr 2.6 05:19:48 16° S 05:20:53 18° SSE 05:23:44 10° ESE visible
26 Apr 2.4 05:09:46 20° S 05:10:17 20° SSE 05:13:23 10° ESE visible
27 Apr 2.3 04:59:43 23° S 04:59:43 23° S 05:02:57 10° ESE visible
28 Apr 2.3 04:49:42 24° SSE 04:49:42 24° SSE 04:52:30 10° ESE visible
